Location: Aranbee
(34.0885°N, 118.2342°W)
Time: 09:32:54
(UTC+00:00)

Courier 1B Rocket - Pass Details

Date: 03 December 2020
Orbit: 920 x 1202 km, 28.2° (Epoch: 27 January)

Event Time Altitude Azimuth Distance (km) Brightness Sun altitude
Rises 12:24:31 0° 250° (WSW) 4,021 - -28.0°
Reaches altitude 10° 12:27:22 10° 246° (WSW) 3,086 - -27.4°
Exits shadow 12:31:52 35° 226° (SW) 1,807 6.1 -26.5°
Maximum altitude 12:34:50 53° 172° (S) 1,443 5.9 -25.9°
Drops below altitude 10° 12:42:22 10° 98° (E) 3,120 8.7 -24.3°
Sets 12:45:16 0° 94° (E) 4,069 9.6 -23.8°
